Jackpot

Texas Poker Multi Jackpot System

Kini Telah hadir Jackpot SUPER ROYAL FLUSH

Kini Telah hadir Jackpot 2000 (khusus table VIP keatas).

Ikutilah global jackpot yang tersedia di system kami, dengan system jackpot terbaru dan pertama di indonesia, anda dapat membeli jackpot dengan harga 100 rupiah saja dan menangkan hadiahnya hingga puluhan juta rupiah.

Jackpot bukanlah suatu keharusan untuk dibeli, namun kami memberikan suatu fitur tambahan untuk member tercinta dari www.luwakpoker.com.

Terdapat tiga pilihan harga jackpot yang bisa anda beli yaitu :100,500,1000 dan 2000(khusus table VIP Keatas) rupiah.

Hadiah dari Multi jackpot system www.luwakpoker.com

  1. full house x 10 harga jackpot yang anda beli.
      (contoh:anda membeli 1000 maka:1000 X10 = 10.000)
  2. four of kind x 250 harga jackpot yang anda beli
      (contoh:anda membeli 1000 maka:1000 X250 = 250.000)
  3. Straight flush x 1200
      (contoh:anda membeli 1000 maka:1000 X1200 = 1.200.000)
  4. Royal flush x 10000 harga jackpot yang anda beli
      (contoh:anda membeli 1000 maka:1000 X10000 = 10.000.000)
  5. SUPER ROYAL FLUSH x 30000 harga jackpot yang anda beli
      (contoh:anda membeli 1000 maka:1000 X30000 = 30.000.000)

Kondisi kartu

  1. full house adalah kondisi kartu dimana kartu anda dan kartu tengah dengan total 7 kartu bisa mendapatkan nilai 5 kartu dengan kombinasi 1 tris(three of kind) dan 1 pair, contoh 3 kartu 10 dan 2 kartu 5
  2. Four of kind adalah kondisi kartu dimana kartu anda dan kartu tengah dengan total 7 kartu bisa mendapatkan nilai 5 kartu dengan kombinasi 4 kartu yang sama jumlah dan 1 kartu apapun juga contoh anda mendapatkan 4 buah kartu angka 3 dan 1 kartu apapun.
  3. Staright flush adalah kondisi kartu dimana kartu anda dan kartu tengah dengan total 7 kartu bisa mendapatkan nilai 5 kartu dengan kombinasi seri / staright dengan kembang yang sama contoh : urutan kartu dari angka 5, 6, 7, 8 , 9 10 dengan kembang yg sama misalnya as hati
  4. Royal flush adalah kondisi kartu dimana kartu anda dan kartu tengah dengan total 7 kartu bisa mendapatkan nilai 5 kartu dengan kombinasi seri / staright dengan kembang yang sama tetapi kartu tersebut haruslah dimulai dari 10. contoh 10, Queen, Jack, King dan aces dengan kembang yang sama
  5. Super Royal flush adalah kondisi kartu dimana Kedua kartu anda digabung dengan 3 kartu pertama meja haruslah royal flush. contoh kartu anda 10,Queen kembang sama dan 3 kartu pertama meja adalah Jack, King dan aces dengan kembang yang sama

Demikian adalah penjelasan dari Multi Jackpot www.luwakpoker.com terima kasih dan selamat bermain salam hoki dari kami

Texas Poker Jackpot Winner

TOP SUPER ROYAL FLUSH
No.TanggalNamaPriceWin
124/11 11:02ARCIL420Super Royal flush3,000,000
224/11 06:38WID_RAU99Super Royal flush3,000,000
324/11 03:31D1NSuper Royal flush6,000,000
424/11 00:00HENTA789Super Royal flush3,000,000
523/11 23:46XIANJIENGSuper Royal flush60,000,000
TOP ROYAL FLUSH
No.TanggalNamaPriceWin
124/11 13:27OGLEK54Royal flush5,000,000
224/11 13:22WEDUS14Royal flush1,000,000
324/11 13:10BISMALRoyal flush5,000,000
424/11 12:49LEAK58Royal flush10,000,000
524/11 12:29E5MANGDIXRoyal flush5,000,000
TOP STRAIGHT FLUSH
No.TanggalNamaPriceWin
124/11 14:01QGGDC4D6NQStraight Flush120,000
224/11 13:59PL3NDUKZStraight Flush600,000
324/11 13:58MW1CQG495UStraight Flush1,200,000
424/11 13:58BAKTI908Straight Flush1,200,000
524/11 13:57PERMENTA9Straight Flush600,000
LATEST JACKPOT
No.TanggalNamaPriceWin
124/11 14:06K3NJI585Full House10,000
224/11 14:06MOEMOEK11Full House500
324/11 14:06ONKYFFull House20,000
424/11 14:06GIZ25Full House2,000
524/11 14:06ZAMBEYAFull House2,000
624/11 14:06JP_POKERFull House2,000
724/11 14:06AHONK6666Full House20,000
824/11 14:06LOBAHEUAYFull House2,000
924/11 14:06DRLIAMZFull House5,000
1024/11 14:06JOHRST02Full House5,000
1124/11 14:06CITAH15Full House2,000
1224/11 14:06TEMPEBAUK2Four Of A Kind25,000
1324/11 14:06KKTOMY23Full House2,000
1424/11 14:06DEBBYYYFull House1,000
1524/11 14:06FRIZKY66Full House1,000
1624/11 14:06HOLIK202Full House10,000
1724/11 14:06E07E986CFull House1,000
1824/11 14:06LATTES99Full House2,000
1924/11 14:06SEPULUHMETFull House1,000
2024/11 14:06SEBELASMETFull House1,000
2124/11 14:06SHEENLONGFull House10,000
2224/11 14:06SARNOIFull House1,000
2324/11 14:06CVSGHENSLYFull House2,000
2424/11 14:06BONG_KENG3Full House2,000
2524/11 14:06FEUN99Full House2,000
2624/11 14:06KUIN89Full House5,000
2724/11 14:06SYAIFUR88Full House5,000
2824/11 14:06INDIT89Full House10,000
2924/11 14:06RIONUGRAHAFull House1,000
3024/11 14:06SUHAI45Full House2,000
3124/11 14:06FILTAXFull House10,000
3224/11 14:06MEDIC212Full House1,000
3324/11 14:06BABE87Full House5,000
3424/11 14:06XXXJITOFull House5,000
3524/11 14:06J4RAFull House2,000
3624/11 14:06ZYAN1988Full House2,000
3724/11 14:06AR4IIFull House5,000
3824/11 14:06J0EECADAFull House2,000
3924/11 14:06SH0AW421DUFour Of A Kind250,000
4024/11 14:06TUNGAU007Full House2,000
4124/11 14:06LAMA70Full House2,000
4224/11 14:06MA36ANFull House5,000
4324/11 14:06MADEFAKEUHFull House2,000
4424/11 14:06LOWBET90Full House10,000
4524/11 14:06G0MB0L123Full House1,000
4624/11 14:05B3SFull House2,000
4724/11 14:05SAND090885Full House20,000
4824/11 14:05SEN8989Full House20,000
4924/11 14:05AMPAOO06Full House5,000
5024/11 14:05USS0812Full House2,000

Domino Multi Jackpot System

Ikutilah global jackpot yang tersedia di system kami, dengan system jackpot terbaru dan pertama di indonesia, anda dapat membeli jackpot dengan harga 100 rupiah saja dan menangkan hadiahnya hingga puluhan juta rupiah.

Jackpot bukanlah suatu keharusan untuk dibeli, namun kami memberikan suatu fitur tambahan untuk member tercinta dari www.luwakpoker.com.

Terdapat tiga pilihan harga jackpot yang bisa anda beli yaitu :100,500 dan 1000 rupiah.

Hadiah dari Multi jackpot system www.luwakpoker.com

  1. Murni Kecil x 50 harga jackpot yang anda beli.
      (contoh:anda membeli 1000 maka:1000 X 50 = 50.000)
  2. Murni Besar x 50 harga jackpot yang anda beli
      (contoh:anda membeli 1000 maka:1000 X 50 = 50.000)
  3. BALAK x 100 harga jackpot yang anda beli
      (contoh:anda membeli 1000 maka:1000 X 100 = 100.000)
  4. ENAM DEWA x 6666 harga jackpot yang anda beli
      (contoh:anda membeli 1000 maka:1000 X 6666 = 6.666.000)

Demikian adalah penjelasan dari Multi Jackpot www.luwakpoker.com terima kasih dan selamat bermain salam hoki dari kami

Domino Jackpot Winner

TOP ENAM DEWA
No.TanggalNamaPriceWin
124/11 13:44WYMODSMP7Cmurni enam3,333,000
224/11 10:16HOYAL81murni enam3,333,000
324/11 10:14KUMBUIH87murni enam666,600
424/11 07:37INDAHNVSRmurni enam6,666,000
524/11 02:19BAKBRINKmurni enam6,666,000
TOP BALAK
No.TanggalNamaPriceWin
124/11 14:01BARJO123balak100,000
224/11 13:58SINTO121balak100,000
324/11 13:40BELEGUGUG2balak50,000
424/11 13:38AANTOKENbalak100,000
524/11 13:36HIDAYAH04balak50,000
LATEST JACKPOT
No.TanggalNamaPriceWin
124/11 14:06CIWERAmurni besar50,000
224/11 14:05BUNGARAN88murni kecil5,000
324/11 14:04WONG002murni besar25,000
424/11 14:04AALNACK855murni kecil25,000
524/11 14:04LORINE46murni kecil5,000
624/11 14:03LUGUA09murni besar50,000
724/11 14:03X1FLWTCXHQmurni besar5,000
824/11 14:03PUTR414murni besar5,000
924/11 14:02JULIMAN99murni kecil25,000
1024/11 14:02GAZ488murni kecil25,000
1124/11 14:01NAR7TOmurni kecil25,000
1224/11 14:01BARJO123balak100,000
1324/11 14:00YBOPmurni kecil5,000
1424/11 14:00AISS008murni kecil25,000
1524/11 13:58SESE123murni besar50,000
1624/11 13:58N4G4EM4Smurni kecil50,000
1724/11 13:58X1FLWTCXHQmurni kecil5,000
1824/11 13:58FE75F5F3murni kecil5,000
1924/11 13:58SINTO121balak100,000
2024/11 13:58DM82997murni besar25,000
2124/11 13:58GANDUT22murni kecil50,000
2224/11 13:57BEPAEOGYWGmurni kecil25,000
2324/11 13:55BUNGARAN88murni kecil5,000
2424/11 13:55SRNMAMANmurni kecil5,000
2524/11 13:55DUDUI07murni kecil50,000
2624/11 13:55DM82997murni kecil25,000
2724/11 13:55JEFREY21murni besar25,000
2824/11 13:54SIPEK18murni kecil25,000
2924/11 13:54ALFI2910murni besar50,000
3024/11 13:52JIBOM77murni besar50,000
3124/11 13:51OGS88murni kecil50,000
3224/11 13:51SAMM97lucky9910,000
3324/11 13:50OPBIJAL303murni besar50,000
3424/11 13:50DONGDOT66murni besar50,000
3524/11 13:48TLJ18lucky992,500
3624/11 13:47VIOLET6murni kecil25,000
3724/11 13:45BKTARNS56murni kecil25,000
3824/11 13:45SNOODSlucky99350,000
3924/11 13:44WYMODSMP7Cmurni enam3,333,000
4024/11 13:44SUKASUKA9Wmurni besar25,000
4124/11 13:43KIAKU99murni kecil25,000
4224/11 13:42WYMODSMP7Cmurni kecil25,000
4324/11 13:42P3G3NR0YALmurni besar50,000
4424/11 13:41T4R3K9999murni besar5,000
4524/11 13:41RINTO90murni besar25,000
4624/11 13:41MRJHONOmurni kecil25,000
4724/11 13:41SNOODSmurni kecil50,000
4824/11 13:41GDNY33murni besar25,000
4924/11 13:40BELEGUGUG2balak50,000
5024/11 13:40GANDUT22murni kecil50,000

Ceme Multi Jackpot System

Jackpot dilihat dari gabungan kartu pemain dengan kartu bandar. Bandar harus membeli jackpot sebanyak jumlah player yang sedang duduk. Sebagai contoh bila terdapat 3 pemain duduk bermain, dan bandar memutuskan untuk membeli jackpot Rp 1.000, maka pada periode tersebut bandar akan membeli jackpot sebanyak 3xRp1.000 = Rp3.000.

Jackpot bukanlah suatu keharusan untuk dibeli, namun kami memberikan suatu fitur tambahan untuk member tercinta dari www.luwakpoker.com.

Terdapat tiga pilihan harga jackpot yang bisa anda beli yaitu :100,500 dan 1000 rupiah.

Hadiah dari Multi jackpot system www.luwakpoker.com

  1. Murni Kecil x 50 harga jackpot yang anda beli.
      (contoh:anda membeli 1000 maka:1000 X 50 = 50.000)
  2. Murni Besar x 50 harga jackpot yang anda beli
      (contoh:anda membeli 1000 maka:1000 X 50 = 50.000)
  3. BALAK x 200 harga jackpot yang anda beli
      (contoh:anda membeli 1000 maka:1000 X 200 = 200.000)
  4. ENAM DEWA x 6666 harga jackpot yang anda beli
      (contoh:anda membeli 1000 maka:1000 X 6666 = 6.666.000)

Demikian adalah penjelasan dari Multi Jackpot www.luwakpoker.com terima kasih dan selamat bermain salam hoki dari kami

Ceme Jackpot Winner

TOP ENAM DEWA
No.TanggalNamaPriceWin
124/11 13:56FEKJIKSUF1murni enam6,666,000
224/11 13:53ALIFF99murni enam6,666,000
324/11 13:34RUINS948murni enam3,333,000
424/11 13:30PARACEPU12murni enam6,666,000
524/11 12:30DONADINYmurni enam6,666,000
TOP BALAK
No.TanggalNamaPriceWin
124/11 14:05GONZAGA77balak100,000
224/11 14:05JUB8787balak200,000
324/11 14:05KATES24balak100,000
424/11 14:05SLTPNJGbalak200,000
524/11 14:04CK54BU50balak200,000
LATEST JACKPOT
No.TanggalNamaPriceWin
124/11 14:06LIDIA56murni kecil25,000
224/11 14:06MODOLL12murni kecil25,000
324/11 14:06MBH121murni besar25,000
424/11 14:06LLTOW79VYEmurni besar25,000
524/11 14:06AMMOmurni kecil50,000
624/11 14:06BENTENG777murni kecil5,000
724/11 14:06AK45555murni kecil25,000
824/11 14:06SKYN3T83murni besar50,000
924/11 14:06DEVAN2702murni besar5,000
1024/11 14:05GONZAGA77balak100,000
1124/11 14:05LALATOUmurni kecil5,000
1224/11 14:05JUNET_X3murni kecil5,000
1324/11 14:05C6Z6THRXYQmurni besar25,000
1424/11 14:05JUB8787balak200,000
1524/11 14:05KATES24balak100,000
1624/11 14:05JEPITAN26murni kecil5,000
1724/11 14:05A113355murni kecil50,000
1824/11 14:05ADEYP97murni kecil5,000
1924/11 14:05A113355murni kecil50,000
2024/11 14:05SLTPNJGbalak200,000
2124/11 14:04CK54BU50balak200,000
2224/11 14:04AUITUT66murni kecil50,000
2324/11 14:04BOMAGmurni kecil50,000
2424/11 14:04LB881740murni kecil50,000
2524/11 14:04LB881740murni kecil50,000
2624/11 14:04BRUR666murni kecil25,000
2724/11 14:04GANGSPUMAmurni kecil5,000
2824/11 14:03EE446799murni besar25,000
2924/11 14:03AADRBHAD86murni besar5,000
3024/11 14:03AYAMM93murni kecil25,000
3124/11 14:03B4GUSBOSmurni kecil50,000
3224/11 14:03KOKOMAJUmurni kecil50,000
3324/11 14:03AWAW95murni kecil5,000
3424/11 14:03ARIYA10murni besar50,000
3524/11 14:03ANDEMAKmurni besar50,000
3624/11 14:03NDOGBUAZ87balak100,000
3724/11 14:03CEMDEWAbalak200,000
3824/11 14:03RAFIAMANmurni kecil50,000
3924/11 14:03CGAM170210balak20,000
4024/11 14:02KODOL20murni kecil50,000
4124/11 14:02KUPLEK9999balak200,000
4224/11 14:02ARWAAANA9balak20,000
4324/11 14:02AD777777murni kecil50,000
4424/11 14:02HAMIDACCmurni kecil25,000
4524/11 14:02LB881740balak200,000
4624/11 14:02OCIDKERA10balak20,000
4724/11 14:02RISKA_AULImurni besar5,000
4824/11 14:02QQSATRBmurni besar50,000
4924/11 14:02TRESNA9962balak100,000
5024/11 14:01BA_6154BUmurni kecil5,000